IRNSS-1E

Last updated on Mon Sep 07 2026 00:02:59 GMT+0000 (Coordinated Universal Time)

1 41241U 16003A 26249.39994803 -.00000301 00000+0 00000+0 0 9993 2 41241 33.4089 58.5750 0020841 179.7544 2.8881 1.00279033 38893
UTC large
Height (km)
Speed (km/s)
/
Latitude / Longitude
Inclination (degrees)
Orbital Period (minutes)
Azimuth
Elevation
Range (km)
Doppler Factor

Next 0 passes for location: London (51.5072 / 0.1276)

No passes found over London.
IRNSS-1E